Home > Weather > Gummersbach > Past weeks

Flag for Germany Past Weather in Gummersbach, North Rhine-Westphalia, Germany — Yesterday and Last 2 Weeks

Now
59 °F

Broken clouds.


Feels Like: 57 °F
Forecast: 50 / 62 °F
Wind: 12 mph from West

Location: Koeln / Bonn

Current Time: Jul 2, 2016 at 11:29:52 AM

Latest Report: Jul 2, 2016 at 10:50 AM


Visibility: N/A

Pressure: 29.98 "Hg

Humidity: 72%

Dew Point: 50 °F

Location of GummersbachLocation

Past Weather in Gummersbach — Graph

°F

Gummersbach Temperature Yesterday

Maximum temperature yesterday: 72 °F (at 6:20 PM)
Minimum temperature yesterday: 61 °F (at 3:20 AM)
Average temperature yesterday: 67 °F

High & Low Weather Summary for the Past Weeks

 TemperatureHumidityPressure
High91 °F (Jun 23, 3:20 PM)100% (Jun 17, 11:20 PM)30.27 "Hg (Jun 17, 11:20 PM)
Low45 °F (Jun 20, 3:20 AM)41% (Jun 23, 5:20 PM)29.68 "Hg (Jun 17, 10:20 AM)
Average64 °F79%30.03 "Hg
* Reported Jun 17 10:20 AM — Jul 2 10:20 AM, Gummersbach, Weather by CustomWeather, © 2016

Note: Actual official high and low records may vary slightly from our data, if they occured in-between our weather recording intervals... More about our weather records

Advertising

Gummersbach Weather History for the Previous 24 Hours

Scroll right to see more
 ConditionsComfort  
Time TempWeatherWind HumidityBarometerVisibility
10:20 AM
Sat, Jul 2
59 °FBroken clouds.12 mph72%29.95 "HgN/A
9:50 AM59 °FBroken clouds.9 mph77%29.95 "HgN/A
9:20 AM57 °FBroken clouds.14 mph82%29.95 "HgN/A
8:50 AM57 °FPartly sunny.12 mph77%29.95 "HgN/A
8:20 AM59 °FPartly sunny.13 mph77%29.95 "HgN/A
7:50 AM57 °FBroken clouds.12 mph82%29.92 "HgN/A
7:20 AM55 °FBroken clouds.7 mph88%29.92 "HgN/A
6:50 AM55 °FPartly sunny.5 mph88%29.92 "HgN/A
6:20 AM55 °FSprinkles. Partly cloudy.3 mph88%29.92 "HgN/A
5:50 AM55 °FSprinkles. Passing clouds.6 mph88%29.92 "HgN/A
5:20 AM55 °FSprinkles. Passing clouds.6 mph88%29.92 "HgN/A
4:50 AM55 °FSprinkles. Passing clouds.10 mph88%29.92 "HgN/A
4:20 AM57 °FSprinkles. Passing clouds.16 mph94%29.89 "Hg3 mi
3:50 AM59 °FRain showers. Passing clouds.15 mph94%29.89 "HgN/A
3:20 AM63 °FRain showers. Partly cloudy.17 mph94%29.86 "HgN/A
2:50 AM66 °FScattered showers. Partly cloudy.12 mph78%29.86 "HgN/A
2:20 AM66 °FPassing clouds.12 mph78%29.86 "HgN/A
1:50 AM64 °FClear.9 mph83%29.86 "Hg10 mi
1:20 AM64 °FClear.9 mph83%29.86 "Hg10 mi
12:50 AM64 °FClear.9 mph83%29.86 "Hg10 mi
12:20 AM66 °FClear.10 mph78%29.89 "Hg10 mi
11:50 PM
Fri, Jul 1
66 °FPassing clouds.10 mph78%29.89 "HgN/A
11:20 PM66 °FClear.12 mph78%29.89 "Hg10 mi
10:50 PM68 °FPassing clouds.13 mph73%29.89 "HgN/A
10:20 PM66 °FLight rain. Broken clouds.8 mph78%29.89 "HgN/A
9:50 PM66 °FPassing clouds.7 mph73%29.89 "HgN/A
9:20 PM68 °FSunny.8 mph69%29.89 "Hg10 mi
8:50 PM70 °FPassing clouds.10 mph64%29.89 "HgN/A
8:20 PM70 °FPassing clouds.13 mph64%29.92 "HgN/A
7:50 PM70 °FPartly sunny.9 mph64%29.92 "HgN/A
7:20 PM72 °FBroken clouds.15 mph61%29.92 "HgN/A
6:50 PM72 °FBroken clouds.15 mph61%29.92 "HgN/A
6:20 PM72 °FBroken clouds.13 mph61%29.92 "HgN/A
5:50 PM70 °FPartly sunny.14 mph64%29.95 "HgN/A
5:20 PM70 °FBroken clouds.13 mph64%29.95 "HgN/A
4:50 PM70 °FBroken clouds.10 mph69%29.95 "HgN/A
4:20 PM70 °FBroken clouds.13 mph64%29.95 "HgN/A
3:50 PM70 °FBroken clouds.14 mph64%29.95 "HgN/A
3:20 PM70 °FPartly sunny.14 mph64%29.95 "HgN/A
2:50 PM68 °FPartly sunny.12 mph69%29.95 "HgN/A
2:20 PM70 °FPartly sunny.14 mph64%29.95 "HgN/A
1:50 PM70 °FPartly sunny.14 mph64%29.95 "HgN/A
1:20 PM68 °FPartly sunny.15 mph69%29.95 "HgN/A
12:50 PM70 °FBroken clouds.12 mph69%29.95 "HgN/A
12:20 PM70 °FBroken clouds.13 mph69%29.95 "HgN/A
11:50 AM70 °FBroken clouds.12 mph69%29.95 "HgN/A
11:20 AM68 °FBroken clouds.13 mph73%29.95 "HgN/A
Weather by CustomWeather, © 2016

See weather overviewHow to use our weather pages